Content
SEND FEEDBACK

Daily
Averages
Monthly
Summary
United States of America

MANGILAO, GUAM


Home > North America > United States > Guam
Elevation: 60 feet     Latitude: 13 27N     Longitude: 144 49E

WEATHER
 
SELECT A DAY
Number of Records: 354,252;   Date Range: 1/1/95 - 11/21/14
 
SHARE

PRINT THIS DATA

[ ← Previous Day ]
WEATHER ALMANAC - JANUARY 15, 2013
[ Next Day → ]
[ °C ]   °F
Weather ElementAverageHighLow
Temperature75.6 °F84.2 °F (12:55 pm)68.4 °F (11:55 pm)
Dewpoint66.2 °F70.5 °F (9:55 am)61.3 °F (2:55 pm)
Humidity73 %84 % (3:55 am)49 % (1:55 pm)
Barometer29.84 in29.90 in (8:55 am)29.78 in (2:55 pm)
Wind Speed9.3 mph17.3 mph (3:55 pm)
Weather ElementAverage
Visibility10 mi
Wind DirectionESE (98.3 °)

Weather ElementTotal
Precipitation---
Cooling Degree Days11.3 (Base 65)
Growing Degree Days26.3 (Base 50)
Averaged from 23 records on January 15, 2013
WEATHER CONDITIONS BREAKOUT
WIND DIRECTION BREAKOUT
WEATHER BY HOUR - JANUARY 15, 2013
[ °C ]   °F
Local TimeTemperatureDewpointHumidityBarometerVisibilityWind DirectionWind SpeedGust SpeedPrecipitationEventsConditions
1:55 AM75.7 °F69.8 °F82 %29.84 in10.0 miSE (130°)6.9 mphClear
2:55 AM75.0 °F69.6 °F83 %29.83 in10.0 miSE (130°)6.9 mphClear
3:55 AM74.1 °F68.9 °F84 %29.83 in10.0 miESE (120°)8.1 mphClear
4:55 AM74.8 °F68.2 °F80 %29.85 in10.0 miESE (120°)10.4 mphClear
5:55 AM73.0 °F66.0 °F79 %29.87 in10.0 miESE (120°)6.9 mphClear
6:55 AM75.7 °F68.2 °F77 %29.88 in10.0 miCalmClear
7:55 AM79.2 °F69.6 °F72 %29.89 in10.0 miEast (100°)6.9 mphClear
8:55 AM81.0 °F69.6 °F68 %29.90 in10.0 miESE (110°)10.4 mphClear
9:55 AM82.4 °F70.5 °F67 %29.89 in10.0 miEast (100°)10.4 mphClear
10:55 AM77.0 °F64.2 °F65 %29.87 in10.0 miESE (120°)10.4 mphClear
11:55 AM75.6 °F63.0 °F65 %29.84 in10.0 miESE (110°)9.2 mphClear
12:55 PM84.2 °F68.0 °F58 %29.82 in10.0 miSSE (150°)11.5 mphClear
1:55 PM84.2 °F63.0 °F49 %29.81 in10.0 miSE (140°)9.2 mphClear
2:55 PM74.1 °F61.3 °F64 %29.78 in10.0 miESE (120°)16.1 mphClear
3:55 PM75.2 °F63.1 °F66 %29.78 in10.0 miESE (120°)17.3 mphClear
4:55 PM77.5 °F66.4 °F68 %29.79 in10.0 miESE (120°)13.8 mphClear
5:55 PM72.7 °F62.1 °F69 %29.82 in10.0 miEast (100°)10.4 mphClear
6:55 PM70.2 °F62.8 °F77 %29.82 in10.0 miEast (100°)8.1 mphClear
7:55 PM70.2 °F63.5 °F79 %29.84 in10.0 miENE (60°)8.1 mphClear
8:55 PM75.9 °F70.3 °F83 %29.85 in10.0 miNE (50°)6.9 mphPartly Cloudy
9:55 PM72.9 °F67.1 °F82 %29.86 in10.0 miNE (50°)8.1 mphClear
10:55 PM70.7 °F64.6 °F81 %29.85 in10.0 miNE (40°)8.1 mphPartly Cloudy
11:55 PM68.4 °F62.8 °F82 %29.85 in10.0 miNE (50°)9.2 mphScattered Clouds
Hourly data recorded from PGUA, located miles away from Mangilao, Guam







STORIES FROM OUR PARTNERS